Regional Weather Roundup
Issued by NWS

Home | Current Version | Previous Version | Text Only | Print | Product List | Glossary Off
Versions: 1 2 3 4 5 6 7 8 9 10 11 12 13 14 15 16 17 18 19 20 21 22 23 24 25 26 27 28 29 30 31 32 33 34 35 36 37 38 39 40 41 42 43 44 45 46 47 48 49 50

000
ASUS45 KPSR 252010
RWRAZ

ARIZONA HOURLY REGIONAL WEATHER ROUNDUP
NATIONAL WEATHER SERVICE PHOENIX AZ
100 PM MST SAT MAR 25 2017

NOTE: FAIR INDICATES FEW OR NO CLOUDS BELOW 12,000 FEET WITH NO
SIGNIFICANT WEATHER AND/OR OBSTRUCTIONS TO VISIBILITY.

AZZ001>003-036-252100-
NORTHWEST ARIZONA

CITY           SKY/WX    TMP DP  RH WIND       PRES   REMARKS
BULLHEAD CITY  MOSUNNY   77  37  24 SW12G17   29.91F
KINGMAN        PTSUNNY   66  22  18 SW14G26   29.98F
$$

AZZ004>008-015-016-018-252100-
NORTH CENTRAL ARIZONA

CITY           SKY/WX    TMP DP  RH WIND       PRES   REMARKS
GRAND CANYON   CLOUDY    50  32  50 SW14G24   30.02F
WILLIAMS       PTSUNNY   52  32  46 S12G28    30.04F
PRESCOTT       PTSUNNY   60  32  34 SW20G28   30.01F
FLAGSTAFF      MOSUNNY   49  31  49 SW16G26   30.04F
PAYSON         MOSUNNY   61  30  31 S9G17     30.06F
PAGE           PTSUNNY   59  36  42 N3        29.93F
$$

AZZ009>014-017-252100-
NORTHEAST ARIZONA

CITY           SKY/WX    TMP DP  RH WIND       PRES   REMARKS
WINSLOW        MOSUNNY   69  26  20 W20G30    29.96F
SAINT JOHNS    MOSUNNY   68   8   9 W23G32    29.97F
WINDOW ROCK    CLOUDY    61  18  18 SW14G24   30.02F
SHOW LOW       SUNNY     57  16  19 SW20G26   30.05F
$$

AZZ023-252100-
GREATER PHOENIX AREA

CITY           SKY/WX    TMP DP  RH WIND       PRES   REMARKS
PHOENIX        MOSUNNY   79  29  16 VRB6      29.92F
BUCKEYE        MOSUNNY   77  32  19 S6        29.93F
GLENDALE       MOSUNNY   77  32  19 CALM      29.94F
LUKE AFB       MOSUNNY   77  33  19 S10       29.91F
DEER VALLEY    MOSUNNY   75  31  19 S15G22    29.93F
SCOTTSDALE     SUNNY     75  31  19 VRB6      29.95F
MESA-GATEWAY   MOSUNNY   75  32  20 CALM      29.96F
CHANDLER       SUNNY     77  30  18 SW10      29.94F
$$

AZZ027-028-252100-
SOUTHWEST MARICOPA COUNTY AND PINAL COUNTY

CITY           SKY/WX    TMP DP  RH WIND       PRES   REMARKS
CASA GRANDE    NOT AVBL
GILA BEND      MOSUNNY   81  30  16 W14G22    29.92F
$$

AZZ503-504-507>509-252100-
SOUTHEAST ARIZONA

CITY           SKY/WX    TMP DP  RH WIND       PRES   REMARKS
TUCSON         SUNNY     77  19  11 NW7       29.99F
DAVIS-MONTHAN  MOSUNNY   75  19  12 VRB5      29.98F
RYAN FIELD     SUNNY     75  23  14 NW7       29.99F
NOGALES        SUNNY     77  15   9 W10G22    30.03F
SIERRA VISTA   SUNNY     75   5   6 W18G28    30.04F
DOUGLAS        MOSUNNY   76  17  11 SE7       30.01F
SAFFORD        SUNNY     74  30  19 VRB7      29.96F
$$

AZZ020-021-025-026-031-252100-
SOUTHWEST ARIZONA

CITY           SKY/WX    TMP DP  RH WIND       PRES   REMARKS
YUMA           SUNNY     81  36  19 W21G28    29.94F
$$

CAZ031-033-041-043-047-048-061-252100-
SOUTHERN CALIFORNIA

CITY           SKY/WX    TMP DP  RH WIND       PRES   REMARKS
DOWNTOWN L.A.  MOSUNNY   69  52  54 VRB3      30.07F
L.A. AIRPORT   PTSUNNY   65  55  70 SW12      30.09F
SAN DIEGO      PTSUNNY   68  48  48 W12       30.11F
BURBANK        PTSUNNY   66  47  50 SW6       30.07F
ONTARIO        PTSUNNY   65  48  54 W6        30.07F
RIVERSIDE      MOSUNNY   66  50  56 NW6       30.07F
PALM SPRINGS   SUNNY     80  26  13 NW24G38   29.95F
EL CENTRO NAS  MOSUNNY   83  35  18 NW24G32   29.96F
IMPERIAL       SUNNY     81  44  27 NW13      29.93F
BLYTHE         SUNNY     80  35  19 VRB6      29.91F
NEEDLES        SUNNY     81  34  18 W17G24    29.91F
$$

NVZ020-UTZ003-252100-
SOUTHERN NEVADA-UTAH

CITY           SKY/WX    TMP DP  RH WIND       PRES   REMARKS
LAS VEGAS      PTSUNNY   68  33  27 N13       29.95F
SALT LAKE CITY LGT RAIN  41  38  89 NW7       30.01F FOG
$$

NMZ009-TXZ055-252100-
NEW MEXICO-WEST TEXAS

CITY           SKY/WX    TMP DP  RH WIND       PRES   REMARKS
ALBUQUERQUE    CLOUDY    64  19  17 SW8G18    30.01F
EL PASO        MOSUNNY   75  18  11 S14       30.01F
$$


........................KEY........................
SKY/WX - SKY CONDITION/WEATHER
TMP    - TEMPERATURE IN FAHRENHEIT
DP     - DEW POINT IN FAHRENHEIT
RH     - RELATIVE HUMIDITY IN PERCENT
WIND   - DIRECTION AND SPEED IN MILES PER HOUR (MPH)
VRB    - VARIABLE WIND DIRECTION
PRES   - MEAN SEA LEVEL PRESSURE IN INCHES OF MERCURY
         F - FALLING PRESSURE   R - RISING PRESSURE
         S - STEADY PRESSURE
VSB    - VISIBILITY IN MILES
HX     - HEAT INDEX IN FAHRENHEIT
WCI    - WIND CHILL INDEX IN FAHRENHEIT
TC     - TEMPERATURE IN CELSIUS WHICH IS ALSO KNOWN AS
         TEMPERATURE IN CENTIGRADE
AFB    - AIR FORCE BASE
         LUKE AFB IS LUKE AIR FORCE BASE
         DAVIS-MONTHAN IS DAVIS-MONTHAN AIR FORCE BASE
NAS    - NAVAL AIR STATION
         EL CENTRO NAS IS EL CENTRO NAVAL AIR STATION
N/A    - NOT AVAILABLE




USA.gov is the U.S. government's official web portal to all federal, state and local government web resources and services.